Year,Month,Day,Hour,Minute,Value (Times are PST for temperature in C)
2012,06,08,00,00,9.20
2012,06,08,00,01,9.20
2012,06,08,00,02,9.10
2012,06,08,00,03,9.10
2012,06,08,00,04,9.00
2012,06,08,00,05,9.00
2012,06,08,00,06,9.00
2012,06,08,00,07,9.00
2012,06,08,00,08,8.90
2012,06,08,00,09,8.90
2012,06,08,00,10,8.90
2012,06,08,00,11,8.90
2012,06,08,00,12,8.80
2012,06,08,00,13,8.80
2012,06,08,00,14,8.80
2012,06,08,00,15,8.80
2012,06,08,00,16,8.80
2012,06,08,00,17,8.70
2012,06,08,00,18,8.70
2012,06,08,00,19,8.70
2012,06,08,00,20,8.60
2012,06,08,00,21,8.60
2012,06,08,00,22,8.60
2012,06,08,00,23,8.50
2012,06,08,00,24,8.50
2012,06,08,00,25,8.40
2012,06,08,00,26,8.40
2012,06,08,00,27,8.40
2012,06,08,00,28,8.30
2012,06,08,00,29,8.30
2012,06,08,00,30,8.30
2012,06,08,00,31,8.30
2012,06,08,00,32,8.30
2012,06,08,00,33,8.30
2012,06,08,00,34,8.30
2012,06,08,00,35,8.30
2012,06,08,00,36,8.30
2012,06,08,00,37,8.40
2012,06,08,00,38,8.40
2012,06,08,00,39,8.40
2012,06,08,00,40,8.40
2012,06,08,00,41,8.40
2012,06,08,00,42,8.40
2012,06,08,00,43,8.40
2012,06,08,00,44,8.40
2012,06,08,00,45,8.40
2012,06,08,00,46,8.40
2012,06,08,00,47,8.40
2012,06,08,00,48,8.40
2012,06,08,00,49,8.40
2012,06,08,00,50,8.40
2012,06,08,00,51,8.40
2012,06,08,00,52,8.30
2012,06,08,00,53,8.30
2012,06,08,00,54,8.30
2012,06,08,00,55,8.30
2012,06,08,00,56,8.30
2012,06,08,00,57,8.30
2012,06,08,00,58,8.30
2012,06,08,00,59,8.30
2012,06,08,01,00,8.30
2012,06,08,01,01,8.20
2012,06,08,01,02,8.20
2012,06,08,01,03,8.20
2012,06,08,01,04,8.20
2012,06,08,01,05,8.20
2012,06,08,01,06,8.20
2012,06,08,01,07,8.30
2012,06,08,01,08,8.30
2012,06,08,01,09,8.30
2012,06,08,01,10,8.30
2012,06,08,01,11,8.30
2012,06,08,01,12,8.30
2012,06,08,01,13,8.30
2012,06,08,01,14,8.30
2012,06,08,01,15,8.30
2012,06,08,01,16,8.30
2012,06,08,01,17,8.40
2012,06,08,01,18,8.30
2012,06,08,01,19,8.40
2012,06,08,01,20,8.40
2012,06,08,01,21,8.40
2012,06,08,01,22,8.40
2012,06,08,01,23,8.40
2012,06,08,01,24,8.50
2012,06,08,01,25,8.50
2012,06,08,01,26,8.60
2012,06,08,01,27,8.60
2012,06,08,01,28,8.60
2012,06,08,01,29,8.70
2012,06,08,01,30,8.80
2012,06,08,01,31,8.80
2012,06,08,01,32,8.90
2012,06,08,01,33,8.90
2012,06,08,01,34,8.90
2012,06,08,01,35,8.90
2012,06,08,01,36,8.90
2012,06,08,01,37,8.90
2012,06,08,01,38,8.90
2012,06,08,01,39,8.90
2012,06,08,01,40,9.00
2012,06,08,01,41,9.00
2012,06,08,01,42,9.00
2012,06,08,01,43,8.90
2012,06,08,01,44,8.90
2012,06,08,01,45,8.90
2012,06,08,01,46,8.90
2012,06,08,01,47,8.90
2012,06,08,01,48,8.90
2012,06,08,01,49,8.90
2012,06,08,01,50,8.90
2012,06,08,01,51,9.00
2012,06,08,01,52,9.00
2012,06,08,01,53,9.00
2012,06,08,01,54,9.00
2012,06,08,01,55,9.00
2012,06,08,01,56,8.90
2012,06,08,01,57,8.90
2012,06,08,01,58,8.90
2012,06,08,01,59,8.90
2012,06,08,02,00,8.90
2012,06,08,02,01,8.90
2012,06,08,02,02,8.90
2012,06,08,02,03,8.90
2012,06,08,02,04,8.90
2012,06,08,02,05,8.90
2012,06,08,02,06,8.80
2012,06,08,02,07,8.80
2012,06,08,02,08,8.80
2012,06,08,02,09,8.80
2012,06,08,02,10,8.80
2012,06,08,02,11,8.80
2012,06,08,02,12,8.80
2012,06,08,02,13,8.80
2012,06,08,02,14,8.70
2012,06,08,02,15,8.70
2012,06,08,02,16,8.70
2012,06,08,02,17,8.70
2012,06,08,02,18,8.70
2012,06,08,02,19,8.70
2012,06,08,02,20,8.70
2012,06,08,02,21,8.70
2012,06,08,02,22,8.70
2012,06,08,02,23,8.70
2012,06,08,02,24,8.70
2012,06,08,02,25,8.70
2012,06,08,02,26,8.70
2012,06,08,02,27,8.70
2012,06,08,02,28,8.70
2012,06,08,02,29,8.70
2012,06,08,02,30,8.70
2012,06,08,02,31,8.60
2012,06,08,02,32,8.60
2012,06,08,02,33,8.60
2012,06,08,02,34,8.60
2012,06,08,02,35,8.60
2012,06,08,02,36,8.60
2012,06,08,02,37,8.60
2012,06,08,02,38,8.60
2012,06,08,02,39,8.60
2012,06,08,02,40,8.60
2012,06,08,02,41,8.60
2012,06,08,02,42,8.60
2012,06,08,02,43,8.60
2012,06,08,02,44,8.60
2012,06,08,02,45,8.60
2012,06,08,02,46,8.50
2012,06,08,02,47,8.50
2012,06,08,02,48,8.50
2012,06,08,02,49,8.50
2012,06,08,02,50,8.50
2012,06,08,02,51,8.40
2012,06,08,02,52,8.40
2012,06,08,02,53,8.40
2012,06,08,02,54,8.30
2012,06,08,02,55,8.30
2012,06,08,02,56,8.30
2012,06,08,02,57,8.30
2012,06,08,02,58,8.20
2012,06,08,02,59,8.20
2012,06,08,03,00,8.20
2012,06,08,03,01,8.20
2012,06,08,03,02,8.10
2012,06,08,03,03,8.10
2012,06,08,03,04,8.10
2012,06,08,03,05,8.10
2012,06,08,03,06,8.10
2012,06,08,03,07,8.00
2012,06,08,03,08,8.00
2012,06,08,03,09,7.90
2012,06,08,03,10,7.90
2012,06,08,03,11,7.90
2012,06,08,03,12,7.90
2012,06,08,03,13,7.80
2012,06,08,03,14,7.80
2012,06,08,03,15,7.80
2012,06,08,03,16,7.70
2012,06,08,03,17,7.70
2012,06,08,03,18,7.70
2012,06,08,03,19,7.60
2012,06,08,03,20,7.60
2012,06,08,03,21,7.50
2012,06,08,03,22,7.50
2012,06,08,03,23,7.50
2012,06,08,03,24,7.40
2012,06,08,03,25,7.30
2012,06,08,03,26,7.30
2012,06,08,03,27,7.30
2012,06,08,03,28,7.20
2012,06,08,03,29,7.20
2012,06,08,03,30,7.10
2012,06,08,03,31,7.10
2012,06,08,03,32,7.10
2012,06,08,03,33,7.10
2012,06,08,03,34,7.10
2012,06,08,03,35,7.20
2012,06,08,03,36,7.20
2012,06,08,03,37,7.20
2012,06,08,03,38,7.20
2012,06,08,03,39,7.20
2012,06,08,03,40,7.20
2012,06,08,03,41,7.30
2012,06,08,03,42,7.30
2012,06,08,03,43,7.40
2012,06,08,03,44,7.40
2012,06,08,03,45,7.40
2012,06,08,03,46,7.40
2012,06,08,03,47,7.40
2012,06,08,03,48,7.40
2012,06,08,03,49,7.40
2012,06,08,03,50,7.50
2012,06,08,03,51,7.50
2012,06,08,03,52,7.50
2012,06,08,03,53,7.60
2012,06,08,03,54,7.60
2012,06,08,03,55,7.60
2012,06,08,03,56,7.70
2012,06,08,03,57,7.70
2012,06,08,03,58,7.70
2012,06,08,03,59,7.70
2012,06,08,04,00,7.80
2012,06,08,04,01,7.80
2012,06,08,04,02,7.80
2012,06,08,04,03,7.80
2012,06,08,04,04,7.80
2012,06,08,04,05,7.80
2012,06,08,04,06,7.80
2012,06,08,04,07,7.80
2012,06,08,04,08,7.80
2012,06,08,04,09,7.80
2012,06,08,04,10,7.80
2012,06,08,04,11,7.80
2012,06,08,04,12,7.80
2012,06,08,04,13,7.80
2012,06,08,04,14,7.80
2012,06,08,04,15,7.80
2012,06,08,04,16,7.80
2012,06,08,04,17,7.80
2012,06,08,04,18,7.80
2012,06,08,04,19,7.80
2012,06,08,04,20,7.80
2012,06,08,04,21,7.80
2012,06,08,04,22,7.90
2012,06,08,04,23,7.90
2012,06,08,04,24,7.90
2012,06,08,04,25,7.90
2012,06,08,04,26,7.90
2012,06,08,04,27,7.90
2012,06,08,04,28,7.90
2012,06,08,04,29,7.90
2012,06,08,04,30,7.90
2012,06,08,04,31,7.90
2012,06,08,04,32,7.90
2012,06,08,04,33,7.90
2012,06,08,04,34,7.90
2012,06,08,04,35,7.90
2012,06,08,04,36,7.90
2012,06,08,04,37,7.90
2012,06,08,04,38,7.90
2012,06,08,04,39,7.90
2012,06,08,04,40,7.90
2012,06,08,04,41,7.90
2012,06,08,04,42,7.90
2012,06,08,04,43,7.90
2012,06,08,04,44,7.90
2012,06,08,04,45,7.90
2012,06,08,04,46,7.90
2012,06,08,04,47,7.90
2012,06,08,04,48,7.90
2012,06,08,04,49,7.90
2012,06,08,04,50,7.90
2012,06,08,04,51,7.90
2012,06,08,04,52,7.90
2012,06,08,04,53,7.90
2012,06,08,04,54,7.90
2012,06,08,04,55,8.00
2012,06,08,04,56,8.00
2012,06,08,04,57,8.00
2012,06,08,04,58,8.00
2012,06,08,04,59,8.00
2012,06,08,05,00,8.00
2012,06,08,05,01,8.00
2012,06,08,05,02,8.00
2012,06,08,05,03,8.00
2012,06,08,05,04,8.00
2012,06,08,05,05,8.00
2012,06,08,05,06,8.00
2012,06,08,05,07,8.10
2012,06,08,05,08,8.00
2012,06,08,05,09,8.00
2012,06,08,05,10,8.00
2012,06,08,05,11,8.00
2012,06,08,05,12,8.00
2012,06,08,05,13,8.00
2012,06,08,05,14,8.00
2012,06,08,05,15,8.00
2012,06,08,05,16,8.00
2012,06,08,05,17,8.00
2012,06,08,05,18,7.90
2012,06,08,05,19,7.90
2012,06,08,05,20,7.90
2012,06,08,05,21,7.90
2012,06,08,05,22,7.90
2012,06,08,05,23,7.90
2012,06,08,05,24,7.90
2012,06,08,05,25,7.90
2012,06,08,05,26,7.90
2012,06,08,05,27,7.90
2012,06,08,05,28,7.90
2012,06,08,05,29,7.90
2012,06,08,05,30,7.90
2012,06,08,05,31,7.90
2012,06,08,05,32,8.00
2012,06,08,05,33,7.90
2012,06,08,05,34,7.90
2012,06,08,05,35,8.00
2012,06,08,05,36,8.00
2012,06,08,05,37,8.00
2012,06,08,05,38,7.90
2012,06,08,05,39,7.90
2012,06,08,05,40,7.90
2012,06,08,05,41,7.90
2012,06,08,05,42,7.90
2012,06,08,05,43,7.90
2012,06,08,05,44,7.90
2012,06,08,05,45,7.90
2012,06,08,05,46,7.90
2012,06,08,05,47,7.90
2012,06,08,05,48,7.90
2012,06,08,05,49,7.90
2012,06,08,05,50,7.90
2012,06,08,05,51,7.90
2012,06,08,05,52,7.90
2012,06,08,05,53,7.90
2012,06,08,05,54,7.90
2012,06,08,05,55,8.00
2012,06,08,05,56,8.00
2012,06,08,05,57,8.00
2012,06,08,05,58,8.00
2012,06,08,05,59,8.00
2012,06,08,06,00,8.00
2012,06,08,06,01,8.00
2012,06,08,06,02,8.00
2012,06,08,06,03,8.10
2012,06,08,06,04,8.10
2012,06,08,06,05,8.20
2012,06,08,06,06,8.20
2012,06,08,06,07,8.20
2012,06,08,06,08,8.20
2012,06,08,06,09,8.20
2012,06,08,06,10,8.20
2012,06,08,06,11,8.20
2012,06,08,06,12,8.20
2012,06,08,06,13,8.20
2012,06,08,06,14,8.20
2012,06,08,06,15,8.30
2012,06,08,06,16,8.30
2012,06,08,06,17,8.30
2012,06,08,06,18,8.30
2012,06,08,06,19,8.30
2012,06,08,06,20,8.30
2012,06,08,06,21,8.30
2012,06,08,06,22,8.30
2012,06,08,06,23,8.30
2012,06,08,06,24,8.30
2012,06,08,06,25,8.30
2012,06,08,06,26,8.30
2012,06,08,06,27,8.40
2012,06,08,06,28,8.40
2012,06,08,06,29,8.40
2012,06,08,06,30,8.50
2012,06,08,06,31,8.50
2012,06,08,06,32,8.60
2012,06,08,06,33,8.60
2012,06,08,06,34,8.60
2012,06,08,06,35,8.60
2012,06,08,06,36,8.70
2012,06,08,06,37,8.70
2012,06,08,06,38,8.70
2012,06,08,06,39,8.70
2012,06,08,06,40,8.70
2012,06,08,06,41,8.70
2012,06,08,06,42,8.70
2012,06,08,06,43,8.70
2012,06,08,06,44,8.70
2012,06,08,06,45,8.80
2012,06,08,06,46,8.80
2012,06,08,06,47,8.80
2012,06,08,06,48,8.80
2012,06,08,06,49,8.80
2012,06,08,06,50,8.80
2012,06,08,06,51,8.80
2012,06,08,06,52,8.80
2012,06,08,06,53,8.80
2012,06,08,06,54,8.80
2012,06,08,06,55,8.80
2012,06,08,06,56,8.80
2012,06,08,06,57,8.80
2012,06,08,06,58,8.80
2012,06,08,06,59,8.80
2012,06,08,07,00,8.80
2012,06,08,07,01,8.80
2012,06,08,07,02,8.80
2012,06,08,07,03,8.80
2012,06,08,07,04,8.80
2012,06,08,07,05,8.80
2012,06,08,07,06,8.80
2012,06,08,07,07,8.80
2012,06,08,07,08,8.80
2012,06,08,07,09,8.80
2012,06,08,07,10,8.90
2012,06,08,07,11,8.90
2012,06,08,07,12,8.90
2012,06,08,07,13,8.90
2012,06,08,07,14,8.90
2012,06,08,07,15,8.90
2012,06,08,07,16,8.90
2012,06,08,07,17,8.90
2012,06,08,07,18,8.90
2012,06,08,07,19,8.90
2012,06,08,07,20,9.00
2012,06,08,07,21,9.00
2012,06,08,07,22,9.00
2012,06,08,07,23,9.00
2012,06,08,07,24,9.10
2012,06,08,07,25,9.10
2012,06,08,07,26,9.10
2012,06,08,07,27,9.10
2012,06,08,07,28,9.10
2012,06,08,07,29,9.10
2012,06,08,07,30,9.20
2012,06,08,07,31,9.20
2012,06,08,07,32,9.20
2012,06,08,07,33,9.20
2012,06,08,07,34,9.20
2012,06,08,07,35,9.30
2012,06,08,07,36,9.30
2012,06,08,07,37,9.30
2012,06,08,07,38,9.30
2012,06,08,07,39,9.30
2012,06,08,07,40,9.40
2012,06,08,07,41,9.40
2012,06,08,07,42,9.40
2012,06,08,07,43,9.40
2012,06,08,07,44,9.50
2012,06,08,07,45,9.50
2012,06,08,07,46,9.60
2012,06,08,07,47,9.60
2012,06,08,07,48,9.60
2012,06,08,07,49,9.60
2012,06,08,07,50,9.70
2012,06,08,07,51,9.70
2012,06,08,07,52,9.70
2012,06,08,07,53,9.70
2012,06,08,07,54,9.80
2012,06,08,07,55,9.80
2012,06,08,07,56,9.80
2012,06,08,07,57,9.80
2012,06,08,07,58,9.80
2012,06,08,07,59,9.80
2012,06,08,08,00,9.80
2012,06,08,08,01,9.80
2012,06,08,08,02,9.80
2012,06,08,08,03,9.80
2012,06,08,08,04,9.90
2012,06,08,08,05,9.90
2012,06,08,08,06,9.90
2012,06,08,08,07,10.00
2012,06,08,08,08,10.00
2012,06,08,08,09,10.00
2012,06,08,08,10,10.10
2012,06,08,08,11,10.20
2012,06,08,08,12,10.30
2012,06,08,08,13,10.30
2012,06,08,08,14,10.40
2012,06,08,08,15,10.50
2012,06,08,08,16,10.50
2012,06,08,08,17,10.60
2012,06,08,08,18,10.60
2012,06,08,08,19,10.60
2012,06,08,08,20,10.60
2012,06,08,08,21,10.60
2012,06,08,08,22,10.50
2012,06,08,08,23,10.50
2012,06,08,08,24,10.40
2012,06,08,08,25,10.40
2012,06,08,08,26,10.40
2012,06,08,08,27,10.30
2012,06,08,08,28,10.30
2012,06,08,08,29,10.30
2012,06,08,08,30,10.30
2012,06,08,08,31,10.30
2012,06,08,08,32,10.30
2012,06,08,08,33,10.30
2012,06,08,08,34,10.30
2012,06,08,08,35,10.20
2012,06,08,08,36,10.20
2012,06,08,08,37,10.20
2012,06,08,08,38,10.20
2012,06,08,08,39,10.20
2012,06,08,08,40,10.20
2012,06,08,08,41,10.20
2012,06,08,08,42,10.20
2012,06,08,08,43,10.10
2012,06,08,08,44,10.10
2012,06,08,08,45,10.10
2012,06,08,08,46,10.10
2012,06,08,08,47,10.00
2012,06,08,08,48,10.00
2012,06,08,08,49,9.90
2012,06,08,08,50,9.90
2012,06,08,08,51,9.90
2012,06,08,08,52,9.80
2012,06,08,08,53,9.80
2012,06,08,08,54,9.90
2012,06,08,08,55,9.90
2012,06,08,08,56,9.90
2012,06,08,08,57,9.90
2012,06,08,08,58,9.80
2012,06,08,08,59,9.80
2012,06,08,09,00,9.80
2012,06,08,09,01,9.90
2012,06,08,09,02,9.90
2012,06,08,09,03,9.90
2012,06,08,09,04,9.90
2012,06,08,09,05,10.00
2012,06,08,09,06,10.00
2012,06,08,09,07,10.00
2012,06,08,09,08,10.10
2012,06,08,09,09,10.10
2012,06,08,09,10,10.10
2012,06,08,09,11,10.10
2012,06,08,09,12,10.10
2012,06,08,09,13,10.00
2012,06,08,09,14,10.00
2012,06,08,09,15,10.00
2012,06,08,09,16,9.90
2012,06,08,09,17,9.90
2012,06,08,09,18,9.90
2012,06,08,09,19,9.90
2012,06,08,09,20,10.00
2012,06,08,09,21,10.00
2012,06,08,09,22,10.00
2012,06,08,09,23,10.00
2012,06,08,09,24,9.90
2012,06,08,09,25,9.90
2012,06,08,09,26,9.90
2012,06,08,09,27,9.90
2012,06,08,09,28,9.90
2012,06,08,09,29,9.90
2012,06,08,09,30,9.90
2012,06,08,09,31,9.90
2012,06,08,09,32,9.90
2012,06,08,09,33,9.90
2012,06,08,09,34,9.90
2012,06,08,09,35,10.00
2012,06,08,09,36,10.00
2012,06,08,09,37,10.10
2012,06,08,09,38,10.10
2012,06,08,09,39,10.10
2012,06,08,09,40,10.20
2012,06,08,09,41,10.20
2012,06,08,09,42,10.30
2012,06,08,09,43,10.30
2012,06,08,09,44,10.40
2012,06,08,09,45,10.50
2012,06,08,09,46,10.50
2012,06,08,09,47,10.60
2012,06,08,09,48,10.60
2012,06,08,09,49,10.70
2012,06,08,09,50,10.80
2012,06,08,09,51,10.80
2012,06,08,09,52,10.90
2012,06,08,09,53,11.00
2012,06,08,09,54,11.10
2012,06,08,09,55,11.20
2012,06,08,09,56,11.20
2012,06,08,09,57,11.20
2012,06,08,09,58,11.20
2012,06,08,09,59,11.20
2012,06,08,10,00,11.20
2012,06,08,10,01,11.10
2012,06,08,10,02,11.10
2012,06,08,10,03,11.00
2012,06,08,10,04,11.00
2012,06,08,10,05,10.90
2012,06,08,10,06,10.90
2012,06,08,10,07,10.90
2012,06,08,10,08,10.80
2012,06,08,10,09,10.80
2012,06,08,10,10,10.80
2012,06,08,10,11,10.80
2012,06,08,10,12,10.80
2012,06,08,10,13,10.80
2012,06,08,10,14,10.80
2012,06,08,10,15,10.80
2012,06,08,10,16,10.90
2012,06,08,10,17,11.00
2012,06,08,10,18,11.10
2012,06,08,10,19,11.10
2012,06,08,10,20,11.10
2012,06,08,10,21,11.10
2012,06,08,10,22,11.10
2012,06,08,10,23,11.20
2012,06,08,10,24,11.30
2012,06,08,10,25,11.40
2012,06,08,10,26,11.50
2012,06,08,10,27,11.60
2012,06,08,10,28,11.60
2012,06,08,10,29,11.70
2012,06,08,10,30,11.70
2012,06,08,10,31,11.70
2012,06,08,10,32,11.70
2012,06,08,10,33,11.70
2012,06,08,10,34,11.60
2012,06,08,10,35,11.40
2012,06,08,10,36,11.30
2012,06,08,10,37,11.30
2012,06,08,10,38,11.30
2012,06,08,10,39,11.30
2012,06,08,10,40,11.20
2012,06,08,10,41,11.20
2012,06,08,10,42,11.20
2012,06,08,10,43,11.20
2012,06,08,10,44,11.20
2012,06,08,10,45,11.20
2012,06,08,10,46,11.20
2012,06,08,10,47,11.20
2012,06,08,10,48,11.20
2012,06,08,10,49,11.20
2012,06,08,10,50,11.20
2012,06,08,10,51,11.20
2012,06,08,10,52,11.20
2012,06,08,10,53,11.20
2012,06,08,10,54,11.30
2012,06,08,10,55,11.30
2012,06,08,10,56,11.30
2012,06,08,10,57,11.30
2012,06,08,10,58,11.30
2012,06,08,10,59,11.30
2012,06,08,11,00,11.30
2012,06,08,11,01,11.20
2012,06,08,11,02,11.20
2012,06,08,11,03,11.20
2012,06,08,11,04,11.20
2012,06,08,11,05,11.20
2012,06,08,11,06,11.30
2012,06,08,11,07,11.40
2012,06,08,11,08,11.50
2012,06,08,11,09,11.50
2012,06,08,11,10,11.70
2012,06,08,11,11,11.80
2012,06,08,11,12,11.90
2012,06,08,11,13,12.10
2012,06,08,11,14,12.20
2012,06,08,11,15,12.20
2012,06,08,11,16,12.30
2012,06,08,11,17,12.30
2012,06,08,11,18,12.30
2012,06,08,11,19,12.20
2012,06,08,11,20,12.20
2012,06,08,11,21,12.30
2012,06,08,11,22,12.30
2012,06,08,11,23,12.40
2012,06,08,11,24,12.50
2012,06,08,11,25,12.60
2012,06,08,11,26,12.80
2012,06,08,11,27,13.00
2012,06,08,11,28,13.10
2012,06,08,11,29,13.30
2012,06,08,11,30,13.40
2012,06,08,11,31,13.60
2012,06,08,11,32,13.70
2012,06,08,11,33,13.80
2012,06,08,11,34,13.80
2012,06,08,11,35,13.90
2012,06,08,11,36,13.90
2012,06,08,11,37,13.90
2012,06,08,11,38,14.00
2012,06,08,11,39,14.00
2012,06,08,11,40,13.90
2012,06,08,11,41,13.90
2012,06,08,11,42,13.80
2012,06,08,11,43,13.80
2012,06,08,11,44,13.70
2012,06,08,11,45,13.70
2012,06,08,11,46,13.60
2012,06,08,11,47,13.60
2012,06,08,11,48,13.60
2012,06,08,11,49,13.70
2012,06,08,11,50,13.70
2012,06,08,11,51,13.80
2012,06,08,11,52,13.80
2012,06,08,11,53,13.90
2012,06,08,11,54,14.00
2012,06,08,11,55,14.00
2012,06,08,11,56,14.10
2012,06,08,11,57,14.10
2012,06,08,11,58,14.10
2012,06,08,11,59,14.20
2012,06,08,12,00,14.30
2012,06,08,12,01,14.30
2012,06,08,12,02,14.30
2012,06,08,12,03,14.30
2012,06,08,12,04,14.30
2012,06,08,12,05,14.30
2012,06,08,12,06,14.20
2012,06,08,12,07,14.20
2012,06,08,12,08,14.20
2012,06,08,12,09,14.20
2012,06,08,12,10,14.30
2012,06,08,12,11,14.20
2012,06,08,12,12,14.20
2012,06,08,12,13,14.20
2012,06,08,12,14,14.10
2012,06,08,12,15,14.10
2012,06,08,12,16,14.00
2012,06,08,12,17,13.90
2012,06,08,12,18,13.80
2012,06,08,12,19,13.80
2012,06,08,12,20,13.70
2012,06,08,12,21,13.60
2012,06,08,12,22,13.60
2012,06,08,12,23,13.50
2012,06,08,12,24,13.50
2012,06,08,12,25,13.40
2012,06,08,12,26,13.40
2012,06,08,12,27,13.30
2012,06,08,12,28,13.20
2012,06,08,12,29,13.10
2012,06,08,12,30,13.00
2012,06,08,12,31,12.80
2012,06,08,12,32,12.80
2012,06,08,12,33,12.70
2012,06,08,12,34,12.70
2012,06,08,12,35,12.70
2012,06,08,12,36,12.70
2012,06,08,12,37,12.80
2012,06,08,12,38,12.80
2012,06,08,12,39,12.90
2012,06,08,12,40,13.00
2012,06,08,12,41,13.10
2012,06,08,12,42,13.20
2012,06,08,12,43,13.30
2012,06,08,12,44,13.40
2012,06,08,12,45,13.40
2012,06,08,12,46,13.50
2012,06,08,12,47,13.60
2012,06,08,12,48,13.70
2012,06,08,12,49,13.80
2012,06,08,12,50,13.80
2012,06,08,12,51,13.80
2012,06,08,12,52,13.80
2012,06,08,12,53,13.80
2012,06,08,12,54,13.80
2012,06,08,12,55,13.80
2012,06,08,12,56,13.80
2012,06,08,12,57,13.80
2012,06,08,12,58,13.80
2012,06,08,12,59,13.80
2012,06,08,13,00,13.80
2012,06,08,13,01,13.80
2012,06,08,13,02,13.80
2012,06,08,13,03,13.90
2012,06,08,13,04,13.90
2012,06,08,13,05,13.90
2012,06,08,13,06,13.90
2012,06,08,13,07,13.90
2012,06,08,13,08,13.90
2012,06,08,13,09,13.90
2012,06,08,13,10,13.90
2012,06,08,13,11,13.90
2012,06,08,13,12,13.90
2012,06,08,13,13,14.00
2012,06,08,13,14,14.00
2012,06,08,13,15,14.10
2012,06,08,13,16,14.10
2012,06,08,13,17,14.10
2012,06,08,13,18,14.00
2012,06,08,13,19,14.00
2012,06,08,13,20,14.10
2012,06,08,13,21,14.10
2012,06,08,13,22,14.00
2012,06,08,13,23,14.00
2012,06,08,13,24,13.90
2012,06,08,13,25,13.90
2012,06,08,13,26,13.90
2012,06,08,13,27,13.90
2012,06,08,13,28,13.90
2012,06,08,13,29,14.00
2012,06,08,13,30,14.10
2012,06,08,13,31,14.20
2012,06,08,13,32,14.20
2012,06,08,13,33,14.20
2012,06,08,13,34,14.20
2012,06,08,13,35,14.20
2012,06,08,13,36,14.20
2012,06,08,13,37,14.10
2012,06,08,13,38,14.10
2012,06,08,13,39,14.00
2012,06,08,13,40,14.00
2012,06,08,13,41,14.00
2012,06,08,13,42,13.90
2012,06,08,13,43,13.80
2012,06,08,13,44,13.80
2012,06,08,13,45,13.70
2012,06,08,13,46,13.70
2012,06,08,13,47,13.60
2012,06,08,13,48,13.60
2012,06,08,13,49,13.60
2012,06,08,13,50,13.60
2012,06,08,13,51,13.60
2012,06,08,13,52,13.60
2012,06,08,13,53,13.60
2012,06,08,13,54,13.70
2012,06,08,13,55,13.70
2012,06,08,13,56,13.80
2012,06,08,13,57,13.80
2012,06,08,13,58,13.80
2012,06,08,13,59,13.80
2012,06,08,14,00,13.90
2012,06,08,14,01,13.90
2012,06,08,14,02,13.90
2012,06,08,14,03,13.90
2012,06,08,14,04,13.90
2012,06,08,14,05,13.90
2012,06,08,14,06,13.90
2012,06,08,14,07,14.00
2012,06,08,14,08,14.00
2012,06,08,14,09,14.00
2012,06,08,14,10,14.10
2012,06,08,14,11,14.10
2012,06,08,14,12,14.10
2012,06,08,14,13,14.10
2012,06,08,14,14,14.10
2012,06,08,14,15,14.10
2012,06,08,14,16,14.10
2012,06,08,14,17,14.10
2012,06,08,14,18,14.20
2012,06,08,14,19,14.20
2012,06,08,14,20,14.20
2012,06,08,14,21,14.20
2012,06,08,14,22,14.10
2012,06,08,14,23,14.00
2012,06,08,14,24,13.90
2012,06,08,14,25,13.90
2012,06,08,14,26,13.90
2012,06,08,14,27,13.90
2012,06,08,14,28,13.90
2012,06,08,14,29,13.90
2012,06,08,14,30,13.80
2012,06,08,14,31,13.80
2012,06,08,14,32,13.80
2012,06,08,14,33,13.80
2012,06,08,14,34,13.90
2012,06,08,14,35,13.90
2012,06,08,14,36,13.90
2012,06,08,14,37,13.90
2012,06,08,14,38,14.00
2012,06,08,14,39,14.00
2012,06,08,14,40,13.90
2012,06,08,14,41,13.90
2012,06,08,14,42,13.90
2012,06,08,14,43,13.80
2012,06,08,14,44,13.80
2012,06,08,14,45,13.80
2012,06,08,14,46,13.80
2012,06,08,14,47,13.80
2012,06,08,14,48,13.80
2012,06,08,14,49,13.70
2012,06,08,14,50,13.70
2012,06,08,14,51,13.70
2012,06,08,14,52,13.70
2012,06,08,14,53,13.70
2012,06,08,14,54,13.80
2012,06,08,14,55,13.80
2012,06,08,14,56,13.90
2012,06,08,14,57,14.00
2012,06,08,14,58,14.00
2012,06,08,14,59,14.10
2012,06,08,15,00,14.20
2012,06,08,15,01,14.30
2012,06,08,15,02,14.40
2012,06,08,15,03,14.50
2012,06,08,15,04,14.60
2012,06,08,15,05,14.70
2012,06,08,15,06,14.70
2012,06,08,15,07,14.70
2012,06,08,15,08,14.70
2012,06,08,15,09,14.80
2012,06,08,15,10,14.80
2012,06,08,15,11,14.70
2012,06,08,15,12,14.70
2012,06,08,15,13,14.70
2012,06,08,15,14,14.70
2012,06,08,15,15,14.70
2012,06,08,15,16,14.70
2012,06,08,15,17,14.70
2012,06,08,15,18,14.80
2012,06,08,15,19,14.80
2012,06,08,15,20,14.80
2012,06,08,15,21,14.80
2012,06,08,15,22,14.60
2012,06,08,15,23,14.60
2012,06,08,15,24,14.70
2012,06,08,15,25,14.80
2012,06,08,15,26,14.80
2012,06,08,15,27,14.80
2012,06,08,15,28,14.80
2012,06,08,15,29,14.70
2012,06,08,15,30,14.70
2012,06,08,15,31,14.70
2012,06,08,15,32,14.70
2012,06,08,15,33,14.60
2012,06,08,15,34,14.60
2012,06,08,15,35,14.70
2012,06,08,15,36,14.70
2012,06,08,15,37,14.60
2012,06,08,15,38,14.60
2012,06,08,15,39,14.60
2012,06,08,15,40,14.60
2012,06,08,15,41,14.60
2012,06,08,15,42,14.70
2012,06,08,15,43,14.70
2012,06,08,15,44,14.60
2012,06,08,15,45,14.40
2012,06,08,15,46,14.30
2012,06,08,15,47,14.40
2012,06,08,15,48,14.50
2012,06,08,15,49,14.60
2012,06,08,15,50,14.60
2012,06,08,15,51,14.60
2012,06,08,15,52,14.60
2012,06,08,15,53,14.60
2012,06,08,15,54,14.50
2012,06,08,15,55,14.40
2012,06,08,15,56,14.30
2012,06,08,15,57,14.10
2012,06,08,15,58,14.00
2012,06,08,15,59,13.90
2012,06,08,16,00,13.90
2012,06,08,16,01,13.90
2012,06,08,16,02,13.80
2012,06,08,16,03,13.70
2012,06,08,16,04,13.60
2012,06,08,16,05,13.50
2012,06,08,16,06,13.40
2012,06,08,16,07,13.40
2012,06,08,16,08,13.50
2012,06,08,16,09,13.60
2012,06,08,16,10,13.70
2012,06,08,16,11,13.80
2012,06,08,16,12,13.80
2012,06,08,16,13,13.80
2012,06,08,16,14,13.80
2012,06,08,16,15,13.90
2012,06,08,16,16,13.90
2012,06,08,16,17,13.90
2012,06,08,16,18,13.80
2012,06,08,16,19,13.80
2012,06,08,16,20,13.80
2012,06,08,16,21,13.80
2012,06,08,16,22,13.70
2012,06,08,16,23,13.70
2012,06,08,16,24,13.80
2012,06,08,16,25,13.80
2012,06,08,16,26,13.80
2012,06,08,16,27,13.90
2012,06,08,16,28,13.90
2012,06,08,16,29,13.90
2012,06,08,16,30,14.00
2012,06,08,16,31,14.10
2012,06,08,16,32,14.00
2012,06,08,16,33,13.90
2012,06,08,16,34,13.80
2012,06,08,16,35,13.70
2012,06,08,16,36,13.70
2012,06,08,16,37,13.80
2012,06,08,16,38,13.80
2012,06,08,16,39,13.80
2012,06,08,16,40,13.80
2012,06,08,16,41,13.90
2012,06,08,16,42,13.90
2012,06,08,16,43,13.80
2012,06,08,16,44,13.80
2012,06,08,16,45,13.70
2012,06,08,16,46,13.70
2012,06,08,16,47,13.70
2012,06,08,16,48,13.80
2012,06,08,16,49,13.70
2012,06,08,16,50,13.70
2012,06,08,16,51,13.70
2012,06,08,16,52,13.60
2012,06,08,16,53,13.60
2012,06,08,16,54,13.60
2012,06,08,16,55,13.50
2012,06,08,16,56,13.50
2012,06,08,16,57,13.50
2012,06,08,16,58,13.40
2012,06,08,16,59,13.40
2012,06,08,17,00,13.40
2012,06,08,17,01,13.30
2012,06,08,17,02,13.40
2012,06,08,17,03,13.40
2012,06,08,17,04,13.50
2012,06,08,17,05,13.50
2012,06,08,17,06,13.50
2012,06,08,17,07,13.50
2012,06,08,17,08,13.40
2012,06,08,17,09,13.40
2012,06,08,17,10,13.40
2012,06,08,17,11,13.40
2012,06,08,17,12,13.40
2012,06,08,17,13,13.40
2012,06,08,17,14,13.50
2012,06,08,17,15,13.50
2012,06,08,17,16,13.50
2012,06,08,17,17,13.40
2012,06,08,17,18,13.40
2012,06,08,17,19,13.40
2012,06,08,17,20,13.50
2012,06,08,17,21,13.50
2012,06,08,17,22,13.60
2012,06,08,17,23,13.60
2012,06,08,17,24,13.60
2012,06,08,17,25,13.50
2012,06,08,17,26,13.50
2012,06,08,17,27,13.60
2012,06,08,17,28,13.60
2012,06,08,17,29,13.70
2012,06,08,17,30,13.80
2012,06,08,17,31,13.90
2012,06,08,17,32,13.90
2012,06,08,17,33,14.00
2012,06,08,17,34,14.10
2012,06,08,17,35,14.20
2012,06,08,17,36,14.20
2012,06,08,17,37,14.20
2012,06,08,17,38,14.20
2012,06,08,17,39,14.10
2012,06,08,17,40,14.10
2012,06,08,17,41,14.00